Whanganui (NZWU)

Aerodrome — Elev 27
New Zealand
S039.57.43.999 E175.01.31.001
Loading chart...

Note: Prior to May 2016, this airport was known by the earlier spelling 'Wanganui'.

Current Weather

NZWU 221100Z 11004KT 080V150 20KM NCD 08/05 Q1016 RMK AUTO VATSIM USE ONLY

Published 21 minutes ago

Airport Activity

Loading chart...
Loading chart...

Standard ATC Positions

CallsignRadio Name / Freq / Voice Room / TypeFrequencyVoice RoomType
NZOH_CTR Ohakea Control
125.100
nzoh_ctr
125.100nzoh_ctr
UNICOM NZZC UNICOM
122.800
unicom_nzzc
122.800unicom_nzzc

Charts